Home > Weather > Niterói > Past weeks

Flag for Brazil Weather for the Past 2 Weeks in Niterói, Rio de Janeiro, Brazil

Now
66 °F

Passing clouds.


Feels Like: 66 °F
Forecast: 65 / 76 °F
Wind: 6 mph from Northwest

Location: Rio De Janeiro Airport

Current Time: May 2, 2016 at 12:48:10 AM

Latest Report: May 2, 2016 at 12:00 AM


Visibility: N/A

Pressure: 30.15 "Hg

Humidity: 78%

Dew Point: 59 °F

Location of NiteróiLocation

Historic Weather in Niterói — Graph

°F

Niterói Temperature Yesterday

Maximum temperature yesterday: 79 °F (at 2:00 PM)
Minimum temperature yesterday: 68 °F (at 4:00 AM)
Average temperature yesterday: 72 °F

High & Low Weather Summary for the Past Weeks

 TemperatureHumidityPressure
High95 °F (Apr 22, 12:00 PM)100% (Apr 27, 3:00 AM)30.15 "Hg (Apr 27, 3:00 AM)
Low66 °F (Apr 28, 9:00 PM)41% (Apr 22, 12:00 PM)29.68 "Hg (Apr 26, 5:00 AM)
Average78 °F73%29.94 "Hg
* Reported Apr 16 11:00 PM — May 1 11:00 PM, Niterói, Weather by CustomWeather, © 2016

Note: Actual official high and low records may vary slightly from our data, if they occured in-between our weather recording intervals... More about our weather records

Advertising

Niterói Weather History for the Previous 24 Hours

Scroll right to see more
 ConditionsComfort  
Time TempWeatherWind HumidityBarometerVisibility
11:00 PM
Sun, May 1
68 °FPassing clouds.8 mph73%30.15 "HgN/A
10:00 PM68 °FClear.7 mph69%30.15 "Hg10 mi
9:00 PM68 °FClear.7 mph69%30.15 "Hg10 mi
8:00 PM70 °FClear.5 mph60%30.15 "Hg10 mi
7:00 PM70 °FClear.3 mph60%30.12 "Hg10 mi
6:00 PM70 °FClear.6 mph57%30.09 "Hg10 mi
5:00 PM72 °FClear.8 mph53%30.09 "Hg10 mi
4:00 PM75 °FSunny.12 mph47%30.07 "Hg10 mi
3:00 PM77 °FPassing clouds.13 mph42%30.07 "HgN/A
2:00 PM79 °FPassing clouds.13 mph42%30.07 "HgN/A
1:00 PM77 °FScattered clouds.16 mph47%30.07 "HgN/A
12:00 PM77 °FPartly sunny.14 mph51%30.09 "HgN/A
11:00 AM75 °FPartly sunny.10 mph50%30.12 "HgN/A
10:00 AM73 °FPartly sunny.13 mph57%30.12 "HgN/A
9:00 AM73 °FBroken clouds.6 mph53%30.12 "HgN/A
8:00 AM72 °FBroken clouds.9 mph69%30.09 "HgN/A
7:00 AM70 °FBroken clouds.5 mph69%30.07 "HgN/A
6:00 AM70 °FPartly sunny.6 mph64%30.04 "HgN/A
5:00 AM70 °FPassing clouds.6 mph64%30.01 "Hg5 mi
4:00 AM68 °FPartly cloudy.10 mph78%30.01 "HgN/A
3:00 AM70 °FPassing clouds.6 mph83%29.98 "HgN/A
2:00 AM70 °FPassing clouds.6 mph78%29.98 "HgN/A
1:00 AM70 °FPassing clouds.8 mph83%30.01 "HgN/A
12:00 AM70 °FPassing clouds.8 mph83%30.01 "HgN/A
Weather by CustomWeather, © 2016

See weather overviewHow to use our weather pages